Hourly Weather Bolshie Pady

Today, 2 August, Monday

Time Temperature Precipitation Wind Pressure Humidity
00:00 +25°C° 0 mm 2 mps 748 mmHg 48%
01:00 +24°C° 0 mm 2 mps 748 mmHg 49%
02:00 +24°C° 0 mm 2 mps 748 mmHg 50%
03:00 +23°C° 0 mm 2 mps 748 mmHg 51%
04:00 +23°C° 0 mm 2 mps 748 mmHg 53%
05:00 +23°C° 0 mm 2 mps 748 mmHg 55%
06:00 +23°C° 0 mm 2 mps 748 mmHg 57%
07:00 +26°C° 0 mm 2 mps 748 mmHg 51%
08:00 +29°C° 0 mm 2 mps 748 mmHg 46%
09:00 +31°C° 0 mm 2 mps 748 mmHg 40%
10:00 +32°C° 0 mm 2 mps 748 mmHg 37%
11:00 +35°C° 0 mm 3 mps 747 mmHg 34%
12:00 +36°C° 0 mm 3 mps 747 mmHg 31%
13:00 +36°C° 0 mm 3 mps 747 mmHg 30%
14:00 +37°C° 0 mm 3 mps 746 mmHg 29%
15:00 +37°C° 0 mm 4 mps 746 mmHg 28%
16:00 +37°C° 0 mm 3 mps 746 mmHg 29%
17:00 +36°C° 0 mm 3 mps 745 mmHg 30%
18:00 +36°C° 0 mm 2 mps 745 mmHg 31%
19:00 +34°C° 0 mm 3 mps 745 mmHg 35%
20:00 +30°C° 0 mm 3 mps 745 mmHg 39%
21:00 +28°C° 0 mm 3 mps 745 mmHg 43%
22:00 +28°C° 0 mm 3 mps 745 mmHg 45%
23:00 +27°C° 0 mm 3 mps 745 mmHg 47%

Tomorrow, 3 August, Tuesday

Time Temperature Precipitation Wind Pressure Humidity
00:00 +26°C° 0 mm 3 mps 745 mmHg 48%
01:00 +25°C° 0.3 mm 3 mps 745 mmHg 55%
02:00 +24°C° 0.3 mm 3 mps 745 mmHg 61%
03:00 +22°C° 0.3 mm 3 mps 745 mmHg 67%
04:00 +22°C° 0 mm 3 mps 745 mmHg 68%
05:00 +22°C° 0 mm 3 mps 745 mmHg 69%
06:00 +23°C° 0 mm 2 mps 745 mmHg 70%
07:00 +24°C° 0 mm 3 mps 746 mmHg 65%
08:00 +26°C° 0 mm 4 mps 746 mmHg 60%
09:00 +28°C° 0 mm 5 mps 746 mmHg 56%
10:00 +27°C° 0.2 mm 4 mps 746 mmHg 61%
11:00 +26°C° 0.2 mm 3 mps 746 mmHg 66%
12:00 +25°C° 0.2 mm 3 mps 747 mmHg 71%
13:00 +27°C° 0.1 mm 3 mps 746 mmHg 63%
14:00 +28°C° 0.1 mm 3 mps 746 mmHg 56%
15:00 +30°C° 0.1 mm 3 mps 746 mmHg 49%
16:00 +30°C° 0 mm 3 mps 746 mmHg 51%
17:00 +29°C° 0 mm 4 mps 746 mmHg 54%
18:00 +28°C° 0 mm 4 mps 745 mmHg 56%
19:00 +26°C° 0.3 mm 3 mps 746 mmHg 65%
20:00 +24°C° 0.3 mm 2 mps 746 mmHg 74%
21:00 +22°C° 0.3 mm 1 mps 747 mmHg 82%
22:00 +21°C° 0.4 mm 1 mps 747 mmHg 84%
23:00 +21°C° 0.4 mm 1 mps 747 mmHg 85%

Day after tomorrow, 4 August, Wednesday

Time Temperature Precipitation Wind Pressure Humidity
00:00 +20°C° 0.4 mm 1 mps 747 mmHg 86%
01:00 +19°C° 0 mm 2 mps 748 mmHg 85%
02:00 +19°C° 0 mm 2 mps 748 mmHg 84%
03:00 +19°C° 0 mm 3 mps 748 mmHg 83%
04:00 +19°C° 0 mm 3 mps 748 mmHg 81%
05:00 +19°C° 0 mm 3 mps 749 mmHg 78%
06:00 +19°C° 0 mm 2 mps 749 mmHg 76%
07:00 +20°C° 0 mm 3 mps 749 mmHg 70%
08:00 +22°C° 0 mm 3 mps 749 mmHg 64%
09:00 +23°C° 0 mm 4 mps 750 mmHg 57%
10:00 +25°C° 0 mm 4 mps 750 mmHg 51%
11:00 +27°C° 0 mm 4 mps 750 mmHg 44%
12:00 +28°C° 0 mm 4 mps 750 mmHg 38%
13:00 +28°C° 0 mm 3 mps 750 mmHg 36%
14:00 +28°C° 0 mm 3 mps 750 mmHg 35%
15:00 +28°C° 0 mm 3 mps 750 mmHg 33%
16:00 +28°C° 0 mm 3 mps 750 mmHg 33%
17:00 +27°C° 0 mm 3 mps 750 mmHg 33%
18:00 +27°C° 0 mm 3 mps 750 mmHg 33%
19:00 +25°C° 0 mm 3 mps 750 mmHg 39%
20:00 +23°C° 0 mm 2 mps 751 mmHg 44%
21:00 +20°C° 0 mm 2 mps 751 mmHg 50%
22:00 +19°C° 0 mm 2 mps 751 mmHg 53%
23:00 +20°C° 0 mm 1 mps 751 mmHg 55%

5 August, Thursday

Time Temperature Precipitation Wind Pressure Humidity
00:00 +19°C° 0 mm 1 mps 751 mmHg 58%
01:00 +19°C° 0 mm 1 mps 751 mmHg 59%
02:00 +18°C° 0 mm 1 mps 752 mmHg 61%
03:00 +18°C° 0 mm 1 mps 752 mmHg 62%
04:00 +18°C° 0 mm 1 mps 752 mmHg 62%
05:00 +18°C° 0 mm 1 mps 752 mmHg 62%
06:00 +19°C° 0 mm 1 mps 752 mmHg 62%
07:00 +21°C° 0 mm 1 mps 752 mmHg 56%
08:00 +23°C° 0 mm 1 mps 752 mmHg 49%
09:00 +25°C° 0 mm 1 mps 752 mmHg 43%
10:00 +26°C° 0 mm 1 mps 752 mmHg 39%
11:00 +27°C° 0 mm 1 mps 752 mmHg 35%
12:00 +29°C° 0 mm 1 mps 752 mmHg 32%
13:00 +29°C° 0 mm 1 mps 752 mmHg 31%
14:00 +29°C° 0 mm 1 mps 752 mmHg 29%
15:00 +30°C° 0 mm 1 mps 751 mmHg 28%
16:00 +29°C° 0 mm 1 mps 751 mmHg 30%
17:00 +29°C° 0 mm 1 mps 751 mmHg 31%
18:00 +29°C° 0 mm 1 mps 751 mmHg 33%
19:00 +27°C° 0 mm 2 mps 751 mmHg 36%
20:00 +25°C° 0 mm 2 mps 751 mmHg 39%
21:00 +23°C° 0 mm 2 mps 751 mmHg 42%
22:00 +21°C° 0 mm 2 mps 751 mmHg 45%
23:00 +21°C° 0 mm 2 mps 751 mmHg 48%

6 August, Friday

Time Temperature Precipitation Wind Pressure Humidity
00:00 +20°C° 0 mm 2 mps 751 mmHg 51%
01:00 +20°C° 0 mm 2 mps 751 mmHg 52%
02:00 +19°C° 0 mm 2 mps 751 mmHg 53%
03:00 +19°C° 0 mm 2 mps 751 mmHg 53%
04:00 +19°C° 0 mm 2 mps 751 mmHg 53%
05:00 +20°C° 0 mm 2 mps 752 mmHg 53%
06:00 +20°C° 0 mm 2 mps 752 mmHg 53%
07:00 +21°C° 0 mm 2 mps 752 mmHg 51%
08:00 +23°C° 0 mm 2 mps 752 mmHg 49%
09:00 +23°C° 0 mm 2 mps 752 mmHg 48%
10:00 +25°C° 0 mm 3 mps 752 mmHg 44%
11:00 +26°C° 0 mm 3 mps 752 mmHg 40%
12:00 +28°C° 0 mm 3 mps 752 mmHg 36%
13:00 +29°C° 0 mm 3 mps 751 mmHg 35%
14:00 +29°C° 0 mm 2 mps 751 mmHg 33%
15:00 +30°C° 0 mm 2 mps 751 mmHg 32%
16:00 +30°C° 0 mm 2 mps 751 mmHg 33%
17:00 +30°C° 0 mm 3 mps 751 mmHg 34%
18:00 +29°C° 0 mm 3 mps 751 mmHg 35%
19:00 +27°C° 0 mm 3 mps 751 mmHg 41%
20:00 +25°C° 0 mm 3 mps 751 mmHg 46%
21:00 +22°C° 0 mm 3 mps 751 mmHg 52%
22:00 +21°C° 0 mm 3 mps 751 mmHg 55%
23:00 +20°C° 0 mm 3 mps 751 mmHg 57%

7 August, Saturday

Time Temperature Precipitation Wind Pressure Humidity
00:00 +20°C° 0 mm 3 mps 751 mmHg 60%
01:00 +19°C° 0 mm 3 mps 751 mmHg 61%
02:00 +19°C° 0 mm 3 mps 751 mmHg 62%
03:00 +19°C° 0 mm 3 mps 751 mmHg 63%
04:00 +19°C° 0 mm 3 mps 751 mmHg 62%
05:00 +19°C° 0 mm 3 mps 751 mmHg 62%
06:00 +19°C° 0 mm 3 mps 751 mmHg 61%
07:00 +21°C° 0 mm 3 mps 752 mmHg 54%
08:00 +25°C° 0 mm 3 mps 752 mmHg 46%
09:00 +27°C° 0 mm 4 mps 752 mmHg 39%
10:00 +28°C° 0 mm 4 mps 752 mmHg 35%
11:00 +30°C° 0 mm 4 mps 752 mmHg 32%
12:00 +31°C° 0 mm 3 mps 751 mmHg 29%
13:00 +33°C° 0 mm 3 mps 751 mmHg 28%
14:00 +33°C° 0 mm 3 mps 751 mmHg 27%
15:00 +34°C° 0 mm 3 mps 751 mmHg 26%
16:00 +33°C° 0 mm 3 mps 751 mmHg 28%
17:00 +31°C° 0 mm 3 mps 751 mmHg 30%
18:00 +32°C° 0 mm 4 mps 751 mmHg 32%
19:00 +29°C° 0 mm 4 mps 751 mmHg 37%
20:00 +27°C° 0 mm 4 mps 752 mmHg 42%
21:00 +23°C° 0 mm 4 mps 752 mmHg 47%
22:00 +23°C° 0 mm 4 mps 752 mmHg 49%
23:00 +22°C° 0 mm 4 mps 753 mmHg 51%
Show more

We Need Your Consent

Meteoprog and our Service Providers may store and access personal data such as cookies, device identifiers or other similar technologies on your device and process such data to personalise content and ads, as well as provide social media features and to analyse the traffic.

  • Store and/or access information on your device

    Cookies, device identifiers or other information can be stored or accessed on your device for the purposes indicated above.

  • Personalised ads and content, ad and content measurement, audience insights, and products development

    Ads and content can be personalised based on a profile. More data can be added to better personalise ads and content. Ad and content performance can be measured. Insights about the audience who saw the ads and content can be derived. Such data can be used to develop or improve user’s experience, systems and software.

By clicking ‘I Agree’ you will allow the use of indicated cookies, device identifiers, web beacons or other similar technologies. Your settings can be changed in the browser on your device.

For certain purposes, legitimate interests may be relied on, rather than consent. You can read more about this in our Privacy and Cookie Policy.